Regional Weather Roundup
Issued by NWS

Home | Current Version | Previous Version | Graphics & Text | Print | Product List | Glossary On
Versions: 1 2 3 4 5 6 7 8 9 10 11 12 13 14 15 16 17 18 19 20 21 22 23 24 25 26 27 28 29 30 31 32 33 34 35 36 37 38 39 40 41 42 43 44 45 46 47 48 49 50
000
ASUS43 KOAX 250602
RWRNE

WEATHER ROUNDUP FOR NEBRASKA
NATIONAL WEATHER SERVICE OMAHA NE
100 AM CDT FRI JUL 25 2014

NOTES: SATELLITE DATA IS BEING USED TO AUGMENT CLOUD COVER ABOVE
       12000 FEET.
       "FAIR" INDICATES FEW OR NO CLOUDS BELOW 12,000 FEET WITH NO
       SIGNIFICANT WEATHER AND/OR OBSTRUCTIONS TO VISIBILITY.

  * THESE STATIONS DO NOT REPORT WEATHER SUCH AS RAIN...SNOW OR FOG.

NEZ001>004-019>022-054>056-250700-
NEBRASKA PANHANDLE

CITY           SKY/WX    TMP DP  RH WIND       PRES   REMARKS
SCOTTSBLUFF    CLEAR     77  54  44 S7        29.90R
6HR MIN TEMP:  71; 6HR MAX TEMP:  86;

ALLIANCE       CLEAR     73  54  51 S12       29.87S
6HR MIN TEMP:  66; 6HR MAX TEMP:  82; 6HR PCP: TRACE;

CHADRON        CLEAR     82  53  36 SW15      29.76R
6HR MIN TEMP:  81; 6HR MAX TEMP:  97;

KIMBALL        CLEAR     71  55  56 SW13      29.99F
SIDNEY         CLEAR     73  56  54 SW12      29.97R
6HR MIN TEMP:  71; 6HR MAX TEMP:  84; 6HR PCP: TRACE;

$$

NEZ057>060-069>072-079>082-250700-
SOUTHWEST NEBRASKA

CITY           SKY/WX    TMP DP  RH WIND       PRES   REMARKS
NORTH PLATTE   MOCLDY    75  58  55 E5        29.82S
6HR MIN TEMP:  75; 6HR MAX TEMP:  94; 6HR PCP: TRACE;

IMPERIAL       PTCLDY    70  59  68 W15G22    29.88R
6HR MIN TEMP:  70; 6HR MAX TEMP:  90; 6HR PCP: TRACE;

LEXINGTON      CLOUDY    82  72  69 S12       29.83S
MCCOOK         PTCLDY    80  62  54 S9        29.84S
6HR MIN TEMP:  79; 6HR MAX TEMP:  96;

OGALLALA       CLEAR     63  58  84 W6        29.87R
$$

NEZ005>010-023>029-035>040-094-250700-
NORTH CENTRAL NEBRASKA

CITY           SKY/WX    TMP DP  RH WIND       PRES   REMARKS
VALENTINE      CLEAR     74  60  61 S8        29.75F
6HR MIN TEMP:  72; 6HR MAX TEMP:  93; 6HR PCP: TRACE;

AINSWORTH      PTCLDY    69  64  84 S18       29.79F
BROKEN BOW     CLOUDY    78  70  76 SE12G24   29.85F
6HR MIN TEMP:  74; 6HR MAX TEMP:  91; 6HR PCP: TRACE;

O`NEILL        CLOUDY    77  60  55 S16G23    29.78R
ORD            CLOUDY    75  68  78 SE17G24   29.81F
6HR MIN TEMP:  69; 6HR MAX TEMP:  85; 6HR PCP:  0.26;

THEDFORD       PTCLDY    73  64  72 SE12      29.84S
$$

NEZ041-046>049-061>064-073>077-083>087-250700-
SOUTH CENTRAL NEBRASKA

CITY           SKY/WX    TMP DP  RH WIND       PRES   REMARKS
GRAND ISLAND   CLOUDY    76  68  76 NE6       29.93R
6HR MIN TEMP:  76; 6HR MAX TEMP:  85;

AURORA         CLOUDY    77  68  75 NE3       29.92R
HASTINGS       CLOUDY    80  65  59 S9        29.88R
6HR MIN TEMP:  80; 6HR MAX TEMP:  91;

HEBRON         CLOUDY    78  65  63 S18G24    29.87S
HOLDREGE       CLOUDY    83  69  62 S14G21    29.85S
KEARNEY *      CLOUDY    81  72  74 E9        29.88R
YORK           LGT RAIN  73  68  83 N16G22    29.94R
$$

NEZ011>018-030>034-042>045-250700-
NORTHEAST NEBRASKA

CITY           SKY/WX    TMP DP  RH WIND       PRES   REMARKS
NORFOLK        LGT RAIN  72  67  84 S29G40    29.81F
6HR MIN TEMP:  72; 6HR MAX TEMP:  83; 6HR PCP:  0.02;

ALBION         DRIZZLE   76  61  60 S18G30    29.81F
BLAIR          LGT RAIN  73  59  62 S16G23    29.90R
COLUMBUS *     CLOUDY    72  64  78 W13       30.01S
FREMONT        CLOUDY    73  62  68 SW12G18   29.94R
TEKAMAH        LGT RAIN  73  62  68 SW14      29.91R
6HR MIN TEMP:  73; 6HR MAX TEMP:  81; 6HR PCP: TRACE;

WAYNE          LGT RAIN  74  68  81 SW24G35   29.79F
$$

NEZ050>053-065>068-078-088>093-250700-
SOUTHEAST NEBRASKA

CITY           SKY/WX    TMP DP  RH WIND       PRES   REMARKS
LINCOLN        LGT RAIN  77  63  61 S12       29.89R
6HR MIN TEMP:  77; 6HR MAX TEMP:  86; 6HR PCP: TRACE;

OMAHA EPPLEY   CLOUDY    75  60  59 S15       29.88R
6HR MIN TEMP:  74; 6HR MAX TEMP:  79;

BEATRICE       CLOUDY    75  64  69 S17       29.88S
FALLS CITY     CLEAR     73  60  63 S14       29.90S
6HR MIN TEMP:  70; 6HR MAX TEMP:  81;

NEBRASKA CITY  MOCLDY    72  58  63 S15       29.87F
PLATTSMOUTH    CLOUDY    73  58  58 S12       29.88R
$$

NEZ044-045-051>053-067-250700-
OMAHA AREA

CITY           SKY/WX    TMP DP  RH WIND       PRES   REMARKS
OMAHA EPPLEY   CLOUDY    75  60  59 S15       29.88R
6HR MIN TEMP:  74; 6HR MAX TEMP:  79;

BLAIR          LGT RAIN  73  59  62 S16G23    29.90R
FREMONT        CLOUDY    73  62  68 SW12G18   29.94R
MILLARD        CLOUDY    74  61  63 SE8       29.89R
OFFUTT AFB     CLOUDY    72  63  72 SE3       29.87R
PLATTSMOUTH    CLOUDY    73  58  58 S12       29.88R
WAHOO          RAIN      72  64  75 NW18      29.97R
$$


USA.gov is the U.S. government's official web portal to all federal, state and local government web resources and services.